Regional Weather Roundup
Issued by NWS

Home | Current Version | Previous Version | Text Only | Print | Product List | Glossary Off
Versions: 1 2 3 4 5 6 7 8 9 10 11 12 13 14 15 16 17 18 19 20 21 22 23 24 25 26 27

000
ASUS45 KTFX 021710
RWRMT
MONTANA REGIONAL WEATHER ROUNDUP
NATIONAL WEATHER SERVICE GREAT FALLS MT
1000 AM MST FRI DEC 02 2016

NOTE: "FAIR" INDICATES FEW OR NO CLOUDS BELOW 12000 FEET WITH NO
SIGNIFICANT WEATHER AND/OR OBSTRUCTIONS TO VISIBILITY.

MTZ001>007-043-021800-
WEST OF THE DIVIDE

CITY           SKY/WX    TMP DP  RH WIND       PRES   REMARKS
KALISPELL      CLOUDY    31  29  92 CALM      30.24S
MISSOULA       CLOUDY    30  26  85 N3        30.31R
BUTTE          CLOUDY    24  16  71 CALM      30.20R
MULLAN PASS    CLOUDY    20  17  88 VRB5      30.17F
ANACONDA         N/A     28  16  59 SW6       30.22S WCI  22
DEER LODGE       N/A     27  21  80 CALM      30.25R
EUREKA           N/A     34  27  75 SE5       30.23S
HAMILTON         N/A     34  18  51 S10       30.29R WCI  26
LIBBY            N/A     28  27  93 CALM      30.25S
PLAINS           N/A     34  26  72 N1        30.28S
RONAN            N/A     33  26  76 CALM      30.29S
$$

MTZ008-052>055-021800-
SOUTHWEST MONTANA

CITY           SKY/WX    TMP DP  RH WIND       PRES   REMARKS
BOZEMAN        CLOUDY    26  21  81 CALM      30.24R
DILLON         SUNNY     24  15  68 W7        30.22R WCI  16
W YELLOWSTONE  PTSUNNY   16  12  86 CALM      30.19S
ENNIS          CLOUDY    23  18  80 S9        30.26R WCI  13
THREE FORKS      N/A     24   4  42 CALM      30.20R
TWIN BRIDGES     N/A     24  15  68 E6        30.19R WCI  17
$$

MTZ009-010-012-014-046-048-049-054-021800-
EAST SLOPES AND CENTRAL MONTANA

CITY           SKY/WX    TMP DP  RH WIND       PRES   REMARKS
CUT BANK       SUNNY     30  22  72 W16       30.07S WCI  19
GREAT FALLS    SUNNY     26  20  77 SW15      30.13S WCI  14
HELENA         CLOUDY    34  18  52 W5        30.20S
AUGUSTA          N/A     31  19  61 W22G29    30.09S WCI  18
BOWMANS CRNR     N/A     29  21  72 SW17      30.10S WCI  17
CHOTEAU          N/A     27  21  80 S3        30.11S
CONRAD           N/A     23  23 100 NW3       30.10S
FAIRFIELD        N/A     29  22  73 SW10      30.10S WCI  20
POWER            N/A     25  22  91 SW12      30.10S WCI  14
RAYNESFORD       N/A     30  19  64 SW14      30.13F WCI  19
ULM              N/A     24  19  83 S7        30.14F WCI  16
$$

MTZ011-013-016-021-045-047-050-051-021800-
NORTH CENTRAL MONTANA

CITY           SKY/WX    TMP DP  RH WIND       PRES   REMARKS
HAVRE          SUNNY     25  23  92 W7        30.13F WCI  17
LEWISTOWN      SUNNY     29  23  78 SW6       30.13S WCI  23
N BAR RANCH    PTSUNNY   25  19  80 CALM      30.14F
CHINOOK          N/A     27  25  93 CALM      30.14F
DENTON           N/A     24  21  87 SW10      30.11R WCI  14
GEYSER           N/A     29  20  69 W14       30.12S WCI  18
GRASS RANGE      N/A     32  26  77 SW2       30.11S
JUDITH GAP       N/A     22  18  82 SW12G18   30.12F WCI  11
ROY              N/A     35  26  70 MISG      30.12S
STANFORD         N/A     29  21  72 SW5       30.11S
WINIFRED         N/A     31  28  88 MISG      30.12S
$$

MTZ017>020-022>027-061-062-021800-
NORTHEAST MONTANA

CITY           SKY/WX    TMP DP  RH WIND       PRES   REMARKS
GLASGOW        CLOUDY    27  25  92 S6        30.16S FOG     WCI  20
JORDAN           N/A     35  28  75 W9        30.17S WCI  28
SIDNEY         CLOUDY    27  25  92 SW6       30.20R WCI  20
WOLF POINT     PTSUNNY   31  25  78 NW5       30.19S
PLENTYWOOD       N/A     27  25  93 NW3       30.17R
POPLAR           N/A     28  25  86 W6        30.20R WCI  22
SCOBEY           N/A     26  18  72 S2        30.13R
$$

MTZ028>42-056>058-021800-
SOUTHCENTRAL AND SOUTHEAST MONTANA

CITY           SKY/WX    TMP DP  RH WIND       PRES   REMARKS
BAKER          CLOUDY    27  23  85 W12       30.19R WCI  17
BILLINGS       MOSUNNY   32  22  66 SW9       30.20R WCI  24
LIVINGSTON     PTSUNNY   32  19  58 W13       30.19S WCI  22
MILES CITY     CLOUDY    23  20  88 SE6       30.20R WCI  16
BIG TIMBER     SUNNY     32  19  59 W23G30    30.19S WCI  19
EKALAKA          N/A     26  22  85 SW5       30.13R
FORSYTH          N/A     32  27  80 CALM      30.21R
HARLOWTON      PTSUNNY   31  22  69 W22G30    30.15F WCI  18
LAUREL           N/A     33  15  48 S1        30.16R
ROUNDUP          N/A     30  23  75 S7        30.07S WCI  23
$$

REGIONAL REPORTS...DAKOTAS

CITY           SKY/WX    TMP DP  RH WIND       PRES   REMARKS
WILLISTON      CLOUDY    28  23  81 SW8       30.19R WCI  20
MINOT          FLURRIES  27  22  81 SE6       30.21F WCI  20
DICKINSON      CLOUDY    25  22  88 S8        30.16R WCI  16
BEACH          CLOUDY    27  25  93 SW10      30.20S WCI  17
CROSBY         CLOUDY    27  27 100 S9        30.20R WCI  17
TIOGA          CLOUDY    27  27 100 S9        30.18S WCI  17
WATFORD CITY   CLOUDY    27  25  93 S6        30.19R WCI  20
BISMARCK       CLOUDY    25  18  74 E7        30.27R WCI  17
GRAND FORKS    CLOUDY    31  22  69 NW8       30.26S WCI  23
FARGO          CLOUDY    29  21  72 N9        30.27R WCI  20
BUFFALO SD       N/A     29  25  85 W13       30.12R WCI  19
RAPID CITY     CLOUDY    34  26  72 N7        30.19R WCI  28
$$

REGIONAL REPORTS...WYOMING/IDAHO/WASHINGTON

CITY           SKY/WX    TMP DP  RH WIND       PRES   REMARKS
GILLETTE       CLOUDY    31  25  78 W7        30.18S WCI  24
SHERIDAN       SUNNY     32  23  69 SE3       30.20R
BUFFALO WY     MOSUNNY   35  18  49 E3        30.18R
CODY           MOSUNNY   29  16  58 CALM      30.18
YELLOWSTONE LA   N/A     19  13  77 VRB3      30.14S
IDAHO FALLS    FOG       17  14  88 N5        30.30R VSB 1/4
SALMON         CLOUDY    28  25  86 CALM      30.31R
BOISE          SUNNY     28  22  78 S6        30.39R WCI  22
SPOKANE        PTSUNNY   30  29  96 S8        30.29F WCI  22
$$

REGIONAL REPORTS...ALBERTA

CITY           SKY/WX    TMP DP  RH WIND       PRES   REMARKS
EDMONTON       PTCLDY    19  18  93 SE3       29.90F
CALGARY        MOSUNNY   19  16  86 S6        29.90F WCI  11
LETHBRIDGE     MOSUNNY   32  19  59 SW15G23   30.01F WCI  22
MEDICINE HAT   MOSUNNY   27  25  93 S2        30.07F
WATERTON GATE    N/A     32  16  51 SW26G38     N/A  WCI  18
CARDSTON         N/A     30  18  59 SW7         N/A  WCI  23
MILK RIVER       N/A     28  19  69 W1          N/A
ONEFOUR          N/A     27  23  86 S1          N/A
$$

REGIONAL REPORTS...SASKATCHEWAN

CITY           SKY/WX    TMP DP  RH WIND       PRES   REMARKS
SWIFT CURRENT  CLOUDY    21  21 100 W12       30.06S WCI   9
REGINA         FRZ DRZL  27  25  93 SW6       30.13S VSB 1   WCI  20
SASKATOON      CLOUDY    27  23  86 SW8       30.14R WCI  18
ROCKGLEN         N/A     23  21  93 MISG        N/A
$$




USA.gov is the U.S. government's official web portal to all federal, state and local government web resources and services.